Погода в Пычим

Россия / Республика Коми     61°57′52″N   50°22′08″E
темп.,
°C
ветер,
м/с
пор.,
м/с
влажн.,
%
обл.,
%
осадки,
мм/ч
давл.,
гПа
погр.,
м
22 октября, пт
пт2200:00+2зюз3996100 0.0 986464
03:00+2ю2999100 0.1 986277
06:00+4ю3899100 0.0 985316
09:00+5ю41198100 0.1 983410
12:00+7ю41298100 3.9 980505
15:00+8юз5149499 5.4 979977
18:00+8зюз6138870 0.6 981935
21:00+6зюз4138610 0.8 984644
23 октября, сб
сб2300:00+4зюз41288100 0.0 986576
03:00+4зюз4129096 0.0 987645
06:00+4зюз51081100 0.1 9891011
09:00+3зюз31097100 1.9 9901067
12:00+3зюз51197100 0.4 993944
15:00+3зюз4997100 0.5 996814
18:00+3зюз3898100 0.2 999787
21:00+1ссв2598100 1.4 1001281
24 октября, вс
вс2400:000св249586 0.5 1003308
03:000св2497100 0.8 1004234
06:00−1св269597 0.3 1005330
09:000св3685100 0.4 1005437
12:00+1ссв357598 0.0 1006723
15:000с3681100 0.0 1007596
18:00−1ссз3787100 0.0 1008454
21:00−2сз3785100 0.0 1009421
25 октября, пн
пн2500:00−2зсз3891100 0.0 1010448
03:00−2зсз478782 0.1 1011659
06:00−2зсз3783100 0.1 1012951
09:00−1з498998 0.2 1012854
12:00−1з498499 0.2 1013943
15:00−1сз497883 0.6 1014870
18:00−3сз498776 0.0 1017577
21:00−1сз467299 0.0 1017926
26 октября, вт
вт2600:00−4з269526 0.0 1018206
03:00−4юз129686 0.0 101881
06:00−4ю2595100 0.0 1017151
09:00−2ю268598 0.0 1016327
12:00−1ю3575100 0.0 1015689
15:00−1юв379592 0.3 1013471
18:00−2юв389673 0.3 1012351
21:00−2юв3797100 0.4 1011282